Welcome to Northern Hawkes Bay. New Zealand.
PWS Header
      nz Flag



Hit Counter


W3C Valid W3C Valid logo


    Wairoa

Select any of the Stations below to visit their websites.










Historic Data from Weather Underground
Select the location of interest below. Wairoa is the default. Please have patience, this Data is slow to load in.
Northern Hawkes Bay Historical Data
Daily Summary for July 1, 2017 Units:  Metric    English   Both
« Previous Day
Next Day »
Daily Weekly Monthly Yearly Custom
  High: Low: Average:
Temperature: 15.8 °C 11.7 °C 14.2 °C
Dew Point: 12.6 °C 8.2 °C 9.9 °C
Humidity: 98% 64% 76%
Wind Speed: 27.0km/h 0.0km/h 8.8km/h
Wind Gust: 35.6km/h - -
Wind- - ENE
Pressure: 1016.8 hPa 1007.3 hPa -
Precipitation: 8.4 mm    
Historical Graphs
 
 
Tabular Data for July 1, 2017
Time Temperature Dew Point Pressure Wind Wind Speed Wind Gust Humidity Rainfall Rate (Hourly) solar
00:02 13.5 °C 9.7 °C 1016.1 hPa ENE 12.2 km/h 18.3 km/h 78% 0.0 mm 8 W/m2
00:07 13.7 °C 9.7 °C 1016.1 hPa NE 12.2 km/h 21.9 km/h 77% 0.0 mm 5 W/m2
00:12 13.9 °C 9.7 °C 1016.1 hPa NE 11.1 km/h 21.9 km/h 76% 0.0 mm 3 W/m2
00:17 13.9 °C 9.7 °C 1016.5 hPa NE 15.8 km/h 18.3 km/h 76% 0.0 mm 3 W/m2
00:22 13.9 °C 9.7 °C 1016.5 hPa NE 12.2 km/h 23.3 km/h 76% 0.0 mm 2 W/m2
00:23 14.1 °C 9.7 °C 1016.5 hPa NE 9.7 km/h 23.3 km/h 75% 0.0 mm 2 W/m2
00:28 14.2 °C 9.6 °C 1016.8 hPa NE 7.2 km/h 23.3 km/h 74% 0.0 mm 1 W/m2
00:33 14.1 °C 9.6 °C 1016.5 hPa NE 11.1 km/h 17.2 km/h 74% 0.0 mm 1 W/m2
00:38 14.3 °C 9.7 °C 1016.5 hPa NE 8.7 km/h 19.5 km/h 74% 0.0 mm 1 W/m2
00:43 14.3 °C 9.7 °C 1016.1 hPa NE 9.7 km/h 19.5 km/h 74% 0.0 mm 0 W/m2
00:48 14.3 °C 9.7 °C 1016.1 hPa NNE 7.2 km/h 19.5 km/h 74% 0.0 mm 0 W/m2
00:53 14.3 °C 9.7 °C 1016.5 hPa NE 8.7 km/h 19.5 km/h 74% 0.0 mm 0 W/m2
00:58 14.3 °C 9.7 °C 1016.5 hPa NNE 9.7 km/h 18.3 km/h 74% 0.0 mm 0 W/m2
01:03 14.4 °C 9.6 °C 1016.5 hPa NE 12.2 km/h 27.0 km/h 73% 0.0 mm 0 W/m2
01:08 14.4 °C 9.6 °C 1016.5 hPa NE 9.7 km/h 27.0 km/h 73% 0.0 mm 0 W/m2
01:13 14.4 °C 9.6 °C 1016.1 hPa NNE 17.2 km/h 20.9 km/h 73% 0.0 mm 0 W/m2
01:18 14.4 °C 9.4 °C 1016.1 hPa NE 18.3 km/h 29.4 km/h 72% 0.0 mm 0 W/m2
01:23 14.5 °C 9.5 °C 1016.1 hPa NE 12.2 km/h 29.4 km/h 72% 0.0 mm 0 W/m2
01:28 14.5 °C 9.5 °C 1016.1 hPa NE 14.8 km/h 29.4 km/h 72% 0.0 mm 0 W/m2
01:33 14.4 °C 9.4 °C 1016.1 hPa ENE 18.3 km/h 25.6 km/h 72% 0.0 mm 0 W/m2
01:38 14.6 °C 9.6 °C 1016.5 hPa NE 8.7 km/h 29.4 km/h 72% 0.0 mm 0 W/m2
01:43 14.6 °C 9.6 °C 1016.5 hPa NE 9.7 km/h 29.4 km/h 72% 0.0 mm 0 W/m2
01:48 14.5 °C 9.5 °C 1016.5 hPa NNE 12.2 km/h 21.9 km/h 72% 0.0 mm 0 W/m2
01:53 14.6 °C 9.6 °C 1016.5 hPa NE 9.7 km/h 20.9 km/h 72% 0.0 mm 0 W/m2
01:58 14.6 °C 9.6 °C 1016.8 hPa NE 8.7 km/h 23.3 km/h 72% 0.0 mm 0 W/m2
02:03 14.6 °C 9.6 °C 1016.5 hPa NE 11.1 km/h 23.3 km/h 72% 0.0 mm 0 W/m2
02:08 14.6 °C 9.6 °C 1016.5 hPa NE 8.7 km/h 21.9 km/h 72% 0.0 mm 0 W/m2
02:14 14.5 °C 9.5 °C 1016.5 hPa NE 7.2 km/h 21.9 km/h 72% 0.0 mm 0 W/m2
02:20 14.6 °C 9.6 °C 1016.5 hPa NE 14.8 km/h 21.9 km/h 72% 0.0 mm 0 W/m2
02:25 14.6 °C 9.6 °C 1016.5 hPa ENE 27.0 km/h 35.6 km/h 72% 0.0 mm 0 W/m2
02:30 14.6 °C 9.6 °C 1016.5 hPa NE 7.2 km/h 35.6 km/h 72% 0.0 mm 0 W/m2
02:35 14.5 °C 9.5 °C 1016.5 hPa NE 8.7 km/h 19.5 km/h 72% 0.0 mm 0 W/m2
02:40 14.5 °C 9.7 °C 1016.5 hPa NE 7.2 km/h 19.5 km/h 73% 0.0 mm 0 W/m2
02:45 14.5 °C 9.7 °C 1016.5 hPa NE 8.7 km/h 27.0 km/h 73% 0.0 mm 0 W/m2
02:50 14.5 °C 9.7 °C 1016.5 hPa NNE 8.7 km/h 27.0 km/h 73% 0.0 mm 0 W/m2
02:55 14.6 °C 9.6 °C 1016.5 hPa NNE 13.4 km/h 21.9 km/h 72% 0.0 mm 0 W/m2
03:00 14.6 °C 9.6 °C 1016.1 hPa NNE 13.4 km/h 21.9 km/h 72% 0.0 mm 0 W/m2
03:05 14.7 °C 9.7 °C 1016.1 hPa NE 12.2 km/h 21.9 km/h 72% 0.0 mm 0 W/m2
03:10 14.6 °C 9.6 °C 1016.1 hPa NNE 9.7 km/h 21.9 km/h 72% 0.0 mm 0 W/m2
03:15 14.7 °C 9.7 °C 1016.1 hPa NNE 13.4 km/h 34.3 km/h 72% 0.0 mm 0 W/m2
03:20 14.7 °C 9.7 °C 1016.1 hPa NE 9.7 km/h 34.3 km/h 72% 0.0 mm 0 W/m2
03:25 14.7 °C 9.5 °C 1016.1 hPa NE 7.2 km/h 27.0 km/h 71% 0.0 mm 0 W/m2
03:30 14.6 °C 9.6 °C 1016.1 hPa NE 9.7 km/h 27.0 km/h 72% 0.0 mm 0 W/m2
03:35 14.7 °C 9.7 °C 1016.1 hPa NE 12.2 km/h 25.6 km/h 72% 0.0 mm 0 W/m2
03:40 14.7 °C 9.7 °C 1016.1 hPa NNE 15.8 km/h 27.0 km/h 72% 0.0 mm 0 W/m2
03:45 14.6 °C 9.8 °C 1016.1 hPa NNE 6.1 km/h 27.0 km/h 73% 0.0 mm 0 W/m2
03:50 14.5 °C 9.7 °C 1016.1 hPa NE 12.2 km/h 25.6 km/h 73% 0.0 mm 0 W/m2
03:55 14.5 °C 9.9 °C 1016.1 hPa NE 14.8 km/h 25.6 km/h 74% 0.0 mm 0 W/m2
04:00 14.5 °C 9.9 °C 1015.8 hPa NE 11.1 km/h 28.0 km/h 74% 0.0 mm 0 W/m2
04:05 14.4 °C 9.8 °C 1015.8 hPa NE 15.8 km/h 28.0 km/h 74% 0.0 mm 0 W/m2
04:10 14.4 °C 9.8 °C 1015.8 hPa North 13.4 km/h 28.0 km/h 74% 0.0 mm 0 W/m2
04:15 14.3 °C 9.7 °C 1015.5 hPa NNE 19.5 km/h 28.0 km/h 74% 0.0 mm 0 W/m2
04:20 14.4 °C 9.8 °C 1015.8 hPa NE 8.7 km/h 27.0 km/h 74% 0.0 mm 0 W/m2
04:25 14.3 °C 9.7 °C 1015.8 hPa NE 14.8 km/h 27.0 km/h 74% 0.0 mm 0 W/m2
04:30 14.4 °C 9.8 °C 1015.8 hPa NE 12.2 km/h 30.6 km/h 74% 0.0 mm 0 W/m2
04:35 14.4 °C 9.6 °C 1015.5 hPa NNE 14.8 km/h 30.6 km/h 73% 0.0 mm 0 W/m2
04:40 14.4 °C 9.6 °C 1015.8 hPa NE 11.1 km/h 25.6 km/h 73% 0.0 mm 0 W/m2
04:45 14.3 °C 9.6 °C 1015.5 hPa NE 15.8 km/h 24.5 km/h 73% 0.0 mm 0 W/m2
04:50 14.4 °C 9.6 °C 1015.5 hPa NE 11.1 km/h 25.6 km/h 73% 0.0 mm 0 W/m2
04:55 14.4 °C 9.6 °C 1015.5 hPa ENE 12.2 km/h 25.6 km/h 73% 0.0 mm 0 W/m2
05:00 14.5 °C 9.5 °C 1015.5 hPa ENE 12.2 km/h 25.6 km/h 72% 0.0 mm 0 W/m2
05:05 14.4 °C 9.6 °C 1015.5 hPa NE 8.7 km/h 25.6 km/h 73% 0.0 mm 0 W/m2
05:10 14.4 °C 9.4 °C 1015.5 hPa NE 7.2 km/h 24.5 km/h 72% 0.0 mm 0 W/m2
05:15 14.4 °C 9.4 °C 1015.5 hPa NE 9.7 km/h 24.5 km/h 72% 0.0 mm 0 W/m2
05:20 14.4 °C 9.4 °C 1015.5 hPa NE 13.4 km/h 33.1 km/h 72% 0.0 mm 0 W/m2
05:25 14.4 °C 9.4 °C 1015.5 hPa NE 7.2 km/h 33.1 km/h 72% 0.0 mm 0 W/m2
05:30 14.4 °C 9.4 °C 1015.5 hPa NE 6.1 km/h 23.3 km/h 72% 0.0 mm 0 W/m2
05:35 14.3 °C 9.6 °C 1015.1 hPa NE 7.2 km/h 21.9 km/h 73% 0.0 mm 0 W/m2
05:40 14.3 °C 9.6 °C 1015.1 hPa NNE 8.7 km/h 21.9 km/h 73% 0.0 mm 0 W/m2
05:45 14.5 °C 9.5 °C 1015.5 hPa NNE 11.1 km/h 20.9 km/h 72% 0.0 mm 0 W/m2
05:50 14.4 °C 9.4 °C 1015.1 hPa NE 9.7 km/h 19.5 km/h 72% 0.0 mm 0 W/m2
05:55 14.4 °C 9.4 °C 1015.1 hPa NE 9.7 km/h 18.3 km/h 72% 0.0 mm 0 W/m2
06:00 14.5 °C 9.5 °C 1015.5 hPa NE 6.1 km/h 18.3 km/h 72% 0.0 mm 0 W/m2
06:05 14.4 °C 9.4 °C 1015.5 hPa ENE 9.7 km/h 17.2 km/h 72% 0.0 mm 0 W/m2
06:10 14.4 °C 9.4 °C 1015.1 hPa NE 12.2 km/h 19.5 km/h 72% 0.0 mm 0 W/m2
06:15 14.5 °C 9.5 °C 1015.1 hPa NE 9.7 km/h 19.5 km/h 72% 0.0 mm 0 W/m2
06:20 14.5 °C 9.5 °C 1015.1 hPa NE 12.2 km/h 19.5 km/h 72% 0.0 mm 0 W/m2
06:25 14.4 °C 9.4 °C 1015.5 hPa NE 9.7 km/h 17.2 km/h 72% 0.0 mm 0 W/m2
06:30 14.4 °C 9.4 °C 1015.1 hPa NE 12.2 km/h 21.9 km/h 72% 0.0 mm 0 W/m2
06:35 14.4 °C 9.4 °C 1015.1 hPa ENE 14.8 km/h 21.9 km/h 72% 0.0 mm 0 W/m2
06:40 14.5 °C 9.3 °C 1015.1 hPa NE 7.2 km/h 19.5 km/h 71% 0.0 mm 0 W/m2
06:45 14.4 °C 9.2 °C 1015.1 hPa ENE 7.2 km/h 18.3 km/h 71% 0.0 mm 0 W/m2
06:50 14.4 °C 9.2 °C 1015.1 hPa NE 11.1 km/h 15.8 km/h 71% 0.0 mm 0 W/m2
06:55 14.4 °C 9.2 °C 1015.1 hPa NE 9.7 km/h 15.8 km/h 71% 0.0 mm 0 W/m2
07:00 14.4 °C 9.2 °C 1015.1 hPa NE 7.2 km/h 15.8 km/h 71% 0.0 mm 0 W/m2
07:05 14.3 °C 8.9 °C 1014.8 hPa NE 6.1 km/h 17.2 km/h 70% 0.0 mm 0 W/m2
07:10 14.4 °C 8.8 °C 1014.8 hPa NE 8.7 km/h 17.2 km/h 69% 0.0 mm 0 W/m2
07:15 14.4 °C 8.8 °C 1015.1 hPa ENE 13.4 km/h 18.3 km/h 69% 0.0 mm 0 W/m2
07:20 14.4 °C 8.6 °C 1014.8 hPa ENE 9.7 km/h 18.3 km/h 68% 0.0 mm 0 W/m2
07:25 14.5 °C 8.7 °C 1014.8 hPa ENE 8.7 km/h 18.3 km/h 68% 0.0 mm 0 W/m2
07:30 14.5 °C 8.7 °C 1014.8 hPa ENE 7.2 km/h 21.9 km/h 68% 0.0 mm 0 W/m2
07:35 14.5 °C 8.4 °C 1014.8 hPa ENE 7.2 km/h 21.9 km/h 67% 0.0 mm 0 W/m2
07:40 14.5 °C 8.4 °C 1014.8 hPa ENE 14.8 km/h 24.5 km/h 67% 0.0 mm 0 W/m2
07:45 14.6 °C 8.3 °C 1014.8 hPa NE 14.8 km/h 24.5 km/h 66% 0.0 mm 0 W/m2
07:50 14.7 °C 8.4 °C 1014.8 hPa NE 8.7 km/h 24.5 km/h 66% 0.0 mm 0 W/m2
07:55 14.6 °C 8.3 °C 1014.4 hPa NE 12.2 km/h 24.5 km/h 66% 0.0 mm 0 W/m2
08:00 14.6 °C 8.3 °C 1014.4 hPa NE 11.1 km/h 20.9 km/h 66% 0.0 mm 0 W/m2
08:05 14.6 °C 8.3 °C 1014.4 hPa NE 6.1 km/h 20.9 km/h 66% 0.0 mm 0 W/m2
08:10 14.6 °C 8.3 °C 1014.4 hPa NE 6.1 km/h 18.3 km/h 66% 0.0 mm 0 W/m2
08:15 14.7 °C 8.4 °C 1014.4 hPa NE 14.8 km/h 19.5 km/h 66% 0.0 mm 0 W/m2
08:17 14.7 °C 8.4 °C 1014.4 hPa NE 8.7 km/h 19.5 km/h 66% 0.0 mm 0 W/m2
08:22 14.7 °C 8.2 °C 1014.4 hPa NE 8.7 km/h 20.9 km/h 65% 0.0 mm 0 W/m2
08:27 14.9 °C 8.4 °C 1014.1 hPa NE 9.7 km/h 20.9 km/h 65% 0.0 mm 0 W/m2
08:32 14.8 °C 8.3 °C 1014.1 hPa ENE 8.7 km/h 20.9 km/h 65% 0.0 mm 0 W/m2
08:37 14.8 °C 8.3 °C 1014.1 hPa NE 13.4 km/h 29.4 km/h 65% 0.0 mm 0 W/m2
08:42 14.9 °C 8.4 °C 1013.8 hPa NE 17.2 km/h 30.6 km/h 65% 0.0 mm 0 W/m2
08:45 14.9 °C 8.4 °C 1014.1 hPa NE 12.2 km/h 30.6 km/h 65% 0.0 mm 0 W/m2
08:50 15.0 °C 8.3 °C 1013.8 hPa NE 15.8 km/h 30.6 km/h 64% 0.0 mm 0 W/m2
08:55 15.0 °C 8.3 °C 1013.8 hPa ENE 7.2 km/h 25.6 km/h 64% 0.0 mm 0 W/m2
09:00 15.0 °C 8.3 °C 1013.8 hPa ENE 11.1 km/h 25.6 km/h 64% 0.0 mm 0 W/m2
09:05 15.0 °C 8.3 °C 1013.8 hPa NE 13.4 km/h 25.6 km/h 64% 0.0 mm 0 W/m2
09:10 15.0 °C 8.3 °C 1013.4 hPa NNE 9.7 km/h 24.5 km/h 64% 0.0 mm 0 W/m2
09:15 14.8 °C 8.3 °C 1013.4 hPa NE 8.7 km/h 24.5 km/h 65% 0.0 mm 0 W/m2
09:20 14.7 °C 8.2 °C 1013.4 hPa NE 9.7 km/h 20.9 km/h 65% 0.0 mm 0 W/m2
09:25 14.9 °C 8.4 °C 1013.4 hPa NE 12.2 km/h 23.3 km/h 65% 0.0 mm 0 W/m2
09:30 14.9 °C 8.4 °C 1013.4 hPa NE 9.7 km/h 23.3 km/h 65% 0.0 mm 0 W/m2
09:35 14.9 °C 8.4 °C 1013.4 hPa NE 8.7 km/h 20.9 km/h 65% 0.0 mm 0 W/m2
09:40 14.9 °C 8.4 °C 1013.4 hPa NE 7.2 km/h 20.9 km/h 65% 0.0 mm 0 W/m2
09:45 14.7 °C 8.4 °C 1013.4 hPa NE 7.2 km/h 19.5 km/h 66% 0.0 mm 0 W/m2
09:50 14.6 °C 8.3 °C 1013.4 hPa NE 9.7 km/h 19.5 km/h 66% 0.0 mm 0 W/m2
09:55 14.7 °C 8.4 °C 1013.1 hPa NNE 7.2 km/h 19.5 km/h 66% 0.0 mm 0 W/m2
10:15 14.7 °C 8.4 °C 1013.1 hPa NE 15.8 km/h 21.9 km/h 66% 0.0 mm 0 W/m2
10:20 14.8 °C 8.5 °C 1013.1 hPa NE 12.2 km/h 20.9 km/h 66% 0.0 mm 0 W/m2
10:25 14.7 °C 8.4 °C 1012.8 hPa NNE 9.7 km/h 20.9 km/h 66% 0.0 mm 0 W/m2
10:30 14.8 °C 8.5 °C 1013.1 hPa NNE 11.1 km/h 31.7 km/h 66% 0.0 mm 0 W/m2
10:35 14.7 °C 8.4 °C 1012.8 hPa NE 15.8 km/h 31.7 km/h 66% 0.0 mm 0 W/m2
10:40 14.8 °C 8.7 °C 1012.8 hPa ENE 9.7 km/h 24.5 km/h 67% 0.0 mm 0 W/m2
10:45 14.7 °C 8.7 °C 1012.4 hPa NE 13.4 km/h 24.5 km/h 67% 0.0 mm 0 W/m2
10:50 14.8 °C 8.5 °C 1012.4 hPa NE 9.7 km/h 24.5 km/h 66% 0.0 mm 0 W/m2
10:55 14.8 °C 8.5 °C 1012.1 hPa NNE 9.7 km/h 24.5 km/h 66% 0.0 mm 0 W/m2
11:00 14.8 °C 8.5 °C 1012.1 hPa NNE 13.4 km/h 24.5 km/h 66% 0.0 mm 0 W/m2
11:05 14.9 °C 8.6 °C 1012.1 hPa NNE 14.8 km/h 27.0 km/h 66% 0.0 mm 0 W/m2
11:10 14.9 °C 8.6 °C 1012.1 hPa NNE 13.4 km/h 27.0 km/h 66% 0.0 mm 0 W/m2
11:15 14.9 °C 8.6 °C 1012.1 hPa NE 7.2 km/h 25.6 km/h 66% 0.0 mm 0 W/m2
11:20 14.9 °C 8.8 °C 1012.1 hPa NE 11.1 km/h 24.5 km/h 67% 0.0 mm 0 W/m2
11:25 14.9 °C 8.8 °C 1011.7 hPa NE 6.1 km/h 20.9 km/h 67% 0.0 mm 0 W/m2
11:30 14.9 °C 8.8 °C 1011.7 hPa NE 9.7 km/h 28.0 km/h 67% 0.0 mm 0 W/m2
11:35 15.0 °C 8.7 °C 1011.7 hPa NE 14.8 km/h 28.0 km/h 66% 0.0 mm 0 W/m2
11:40 15.1 °C 8.8 °C 1011.7 hPa NNE 11.1 km/h 25.6 km/h 66% 0.0 mm 0 W/m2
11:45 15.2 °C 8.9 °C 1011.4 hPa NE 11.1 km/h 30.6 km/h 66% 0.0 mm 0 W/m2
11:50 15.1 °C 8.8 °C 1011.4 hPa ENE 12.2 km/h 35.6 km/h 66% 0.0 mm 0 W/m2
11:55 15.1 °C 8.8 °C 1011.4 hPa NE 11.1 km/h 35.6 km/h 66% 0.0 mm 0 W/m2
12:00 15.2 °C 8.9 °C 1011.4 hPa NE 7.2 km/h 31.7 km/h 66% 0.0 mm 0 W/m2
12:05 15.2 °C 8.9 °C 1011.4 hPa NE 9.7 km/h 28.0 km/h 66% 0.0 mm 0 W/m2
12:10 15.2 °C 8.7 °C 1011.4 hPa NE 6.1 km/h 21.9 km/h 65% 0.0 mm 0 W/m2
12:15 15.2 °C 8.9 °C 1011.1 hPa NE 6.1 km/h 19.5 km/h 66% 0.0 mm 0 W/m2
12:20 15.1 °C 8.8 °C 1011.1 hPa NNE 8.7 km/h 18.3 km/h 66% 0.0 mm 0 W/m2
12:25 15.2 °C 8.7 °C 1011.1 hPa NE 3.5 km/h 18.3 km/h 65% 0.0 mm 0 W/m2
12:30 15.1 °C 8.8 °C 1011.1 hPa NE 5.0 km/h 17.2 km/h 66% 0.0 mm 0 W/m2
12:35 15.1 °C 8.8 °C 1010.7 hPa NE 5.0 km/h 14.8 km/h 66% 0.0 mm 0 W/m2
12:40 15.1 °C 8.8 °C 1010.7 hPa NE 5.0 km/h 14.8 km/h 66% 0.0 mm 0 W/m2
12:45 14.8 °C 8.7 °C 1010.7 hPa NE 3.5 km/h 13.4 km/h 67% 0.0 mm 0 W/m2
12:50 14.6 °C 8.8 °C 1010.7 hPa NE 5.0 km/h 7.2 km/h 68% 0.0 mm 0 W/m2
12:55 14.5 °C 8.7 °C 1010.7 hPa NE 7.2 km/h 9.7 km/h 68% 0.0 mm 0 W/m2
13:00 14.7 °C 8.8 °C 1010.7 hPa NE 8.7 km/h 15.8 km/h 68% 0.0 mm 0 W/m2
13:05 14.8 °C 8.9 °C 1010.7 hPa ENE 2.6 km/h 15.8 km/h 68% 0.0 mm 0 W/m2
13:10 14.9 °C 9.1 °C 1010.7 hPa NE 9.7 km/h 12.2 km/h 68% 0.0 mm 0 W/m2
13:15 15.0 °C 8.9 °C 1010.7 hPa NE 8.7 km/h 13.4 km/h 67% 0.0 mm 0 W/m2
13:20 15.3 °C 9.2 °C 1010.7 hPa NE 12.2 km/h 20.9 km/h 67% 0.0 mm 0 W/m2
13:25 15.6 °C 9.3 °C 1010.7 hPa NE 12.2 km/h 21.9 km/h 66% 0.0 mm 0 W/m2
13:30 15.7 °C 9.4 °C 1010.4 hPa NE 5.0 km/h 27.0 km/h 66% 0.0 mm 0 W/m2
13:35 15.8 °C 9.2 °C 1010.7 hPa NE 17.2 km/h 29.4 km/h 65% 0.0 mm 0 W/m2
13:40 15.8 °C 9.2 °C 1010.4 hPa NNE 5.0 km/h 29.4 km/h 65% 0.0 mm 0 W/m2
13:45 15.7 °C 9.4 °C 1010.7 hPa NNE 7.2 km/h 27.0 km/h 66% 0.0 mm 0 W/m2
13:50 15.7 °C 9.2 °C 1010.7 hPa NNE 9.7 km/h 24.5 km/h 65% 0.0 mm 0 W/m2
13:55 15.7 °C 9.4 °C 1011.1 hPa NE 6.1 km/h 24.5 km/h 66% 0.0 mm 0 W/m2
14:00 15.6 °C 9.3 °C 1010.7 hPa NE 12.2 km/h 23.3 km/h 66% 0.0 mm 0 W/m2
14:05 15.6 °C 9.3 °C 1010.7 hPa NE 6.1 km/h 18.3 km/h 66% 0.0 mm 0 W/m2
14:10 15.5 °C 9.2 °C 1010.7 hPa NNE 7.2 km/h 18.3 km/h 66% 0.0 mm 0 W/m2
14:15 15.5 °C 9.2 °C 1010.7 hPa NNE 9.7 km/h 18.3 km/h 66% 0.0 mm 0 W/m2
14:20 15.6 °C 9.3 °C 1011.1 hPa NNE 7.2 km/h 18.3 km/h 66% 0.0 mm 0 W/m2
14:25 15.1 °C 8.8 °C 1010.7 hPa NE 9.7 km/h 17.2 km/h 66% 0.0 mm 0 W/m2
14:30 14.9 °C 9.3 °C 1011.1 hPa ENE 5.0 km/h 17.2 km/h 69% 0.0 mm 0 W/m2
14:35 14.8 °C 9.2 °C 1011.1 hPa NE 6.1 km/h 17.2 km/h 69% 0.0 mm 0 W/m2
14:40 14.9 °C 9.3 °C 1010.7 hPa NE 6.1 km/h 13.4 km/h 69% 0.0 mm 0 W/m2
14:45 14.9 °C 9.3 °C 1010.7 hPa NE 5.0 km/h 17.2 km/h 69% 0.0 mm 0 W/m2
14:50 14.8 °C 9.2 °C 1011.1 hPa NE 14.8 km/h 27.0 km/h 69% 0.0 mm 0 W/m2
14:55 14.9 °C 9.3 °C 1011.1 hPa NE 5.0 km/h 27.0 km/h 69% 0.0 mm 0 W/m2
15:00 14.6 °C 9.2 °C 1011.1 hPa NE 3.5 km/h 27.0 km/h 70% 0.0 mm 0 W/m2
15:05 14.6 °C 9.4 °C 1011.1 hPa NE 6.1 km/h 9.7 km/h 71% 0.0 mm 0 W/m2
15:10 14.6 °C 9.4 °C 1011.4 hPa NE 3.5 km/h 8.7 km/h 71% 0.0 mm 0 W/m2
15:15 14.5 °C 9.3 °C 1011.1 hPa ENE 6.1 km/h 9.7 km/h 71% 0.0 mm 0 W/m2
15:20 14.7 °C 9.5 °C 1011.4 hPa NE 6.1 km/h 9.7 km/h 71% 0.0 mm 0 W/m2
15:25 14.6 °C 9.4 °C 1011.4 hPa NE 5.0 km/h 9.7 km/h 71% 0.0 mm 0 W/m2
15:30 14.5 °C 9.5 °C 1011.4 hPa NE 12.2 km/h 17.2 km/h 72% 0.0 mm 0 W/m2
15:35 14.8 °C 10.0 °C 1011.4 hPa NE 3.5 km/h 17.2 km/h 73% 0.0 mm 0 W/m2
15:40 15.0 °C 9.8 °C 1011.4 hPa NE 3.5 km/h 17.2 km/h 71% 0.0 mm 0 W/m2
15:45 15.0 °C 10.0 °C 1011.4 hPa NNE 5.0 km/h 14.8 km/h 72% 0.0 mm 0 W/m2
15:50 14.8 °C 10.2 °C 1011.7 hPa NNE 5.0 km/h 14.8 km/h 74% 0.0 mm 0 W/m2
15:55 14.6 °C 10.2 °C 1011.7 hPa North 2.6 km/h 11.1 km/h 75% 0.0 mm 0 W/m2
16:00 14.3 °C 10.3 °C 1011.7 hPa NNE 1.1 km/h 13.4 km/h 77% 0.0 mm 0 W/m2
16:06 13.9 °C 10.1 °C 1011.7 hPa NNE 2.6 km/h 13.4 km/h 78% 0.3 mm 0 W/m2
16:11 13.7 °C 10.3 °C 1011.7 hPa Calm   3.5 km/h 80% 0.3 mm 0 W/m2
16:16 13.5 °C 10.1 °C 1011.7 hPa North 2.6 km/h 3.5 km/h 80% 0.5 mm 0 W/m2
16:21 13.3 °C 10.5 °C 1012.1 hPa NW 7.2 km/h 9.7 km/h 83% 1.0 mm 0 W/m2
16:26 12.6 °C 10.3 °C 1012.1 hPa WNW 7.2 km/h 9.7 km/h 86% 1.8 mm 1 W/m2
16:31 12.1 °C 10.3 °C 1012.4 hPa NW 5.0 km/h 11.1 km/h 89% 2.8 mm 0 W/m2
16:36 11.9 °C 10.7 °C 1012.1 hPa NW 1.1 km/h 11.1 km/h 92% 2.8 mm 2 W/m2
16:41 11.8 °C 10.7 °C 1012.4 hPa North 2.6 km/h 7.2 km/h 93% 3.3 mm 3 W/m2
16:46 11.7 °C 10.8 °C 1012.4 hPa NE 2.6 km/h 7.2 km/h 94% 3.6 mm 4 W/m2
16:51 11.7 °C 10.9 °C 1011.7 hPa Calm   7.2 km/h 95% 3.8 mm 6 W/m2
16:56 11.7 °C 11.1 °C 1012.1 hPa ENE 2.6 km/h 6.1 km/h 96% 4.3 mm 9 W/m2
17:01 11.8 °C 11.2 °C 1012.1 hPa NE 1.1 km/h 8.7 km/h 96% 4.3 mm 9 W/m2
17:06 11.7 °C 11.2 °C 1011.7 hPa NE 6.1 km/h 8.7 km/h 97% 4.6 mm 9 W/m2
17:11 11.7 °C 11.4 °C 1011.7 hPa NE 3.5 km/h 9.7 km/h 98% 4.8 mm 11 W/m2
17:16 11.7 °C 11.4 °C 1011.7 hPa NE 5.0 km/h 9.7 km/h 98% 4.8 mm 16 W/m2
17:21 11.7 °C 11.4 °C 1011.7 hPa NE 5.0 km/h 9.7 km/h 98% 4.8 mm 19 W/m2
17:26 11.7 °C 11.4 °C 1011.7 hPa ENE 6.1 km/h 9.7 km/h 98% 3.8 mm 19 W/m2
17:31 11.7 °C 11.4 °C 1011.7 hPa ENE 8.7 km/h 11.1 km/h 98% 3.6 mm 24 W/m2
17:36 11.7 °C 11.4 °C 1011.7 hPa ENE 6.1 km/h 11.1 km/h 98% 3.6 mm 18 W/m2
17:41 11.7 °C 11.4 °C 1011.7 hPa ENE 8.7 km/h 15.8 km/h 98% 3.6 mm 13 W/m2
17:46 11.7 °C 11.4 °C 1011.7 hPa ENE 9.7 km/h 15.8 km/h 98% 3.6 mm 16 W/m2
17:51 11.7 °C 11.4 °C 1011.7 hPa ENE 7.2 km/h 15.8 km/h 98% 3.6 mm 17 W/m2
17:56 11.7 °C 11.4 °C 1011.4 hPa ENE 12.2 km/h 18.3 km/h 98% 3.6 mm 19 W/m2
18:01 11.8 °C 11.5 °C 1011.1 hPa East 11.1 km/h 19.5 km/h 98% 3.6 mm 20 W/m2
18:06 11.8 °C 11.5 °C 1010.4 hPa ENE 14.8 km/h 31.7 km/h 98% 3.6 mm 24 W/m2
18:11 12.0 °C 11.6 °C 1010.0 hPa East 12.2 km/h 34.3 km/h 97% 3.3 mm 38 W/m2
18:16 12.2 °C 11.7 °C 1010.4 hPa East 12.2 km/h 34.3 km/h 97% 3.0 mm 46 W/m2
18:21 12.3 °C 11.8 °C 1010.4 hPa East 18.3 km/h 28.0 km/h 97% 2.3 mm 54 W/m2
18:26 12.5 °C 12.1 °C 1010.7 hPa ENE 8.7 km/h 25.6 km/h 97% 2.3 mm 78 W/m2
18:31 12.6 °C 12.2 °C 1010.7 hPa ENE 6.1 km/h 25.6 km/h 97% 2.0 mm 73 W/m2
18:36 12.6 °C 12.2 °C 1010.4 hPa ENE 5.0 km/h 18.3 km/h 97% 1.8 mm 71 W/m2
18:41 12.7 °C 12.2 °C 1010.7 hPa East 2.6 km/h 11.1 km/h 97% 1.5 mm 65 W/m2
18:46 12.8 °C 12.3 °C 1010.7 hPa NE 2.6 km/h 8.7 km/h 97% 1.3 mm 63 W/m2
18:51 12.8 °C 12.3 °C 1011.1 hPa North 1.1 km/h 6.1 km/h 97% 1.0 mm 49 W/m2
18:56 12.8 °C 12.3 °C 1010.7 hPa NNW 2.6 km/h 6.1 km/h 97% 0.5 mm 36 W/m2
19:01 12.8 °C 12.2 °C 1010.7 hPa NW 3.5 km/h 6.1 km/h 96% 0.3 mm 39 W/m2
19:06 12.7 °C 12.1 °C 1010.7 hPa WNW 2.6 km/h 6.1 km/h 96% 0.0 mm 45 W/m2
19:11 12.6 °C 12.0 °C 1010.4 hPa WNW 5.0 km/h 8.7 km/h 96% 0.0 mm 47 W/m2
19:16 12.6 °C 12.0 °C 1010.4 hPa WNW 5.0 km/h 8.7 km/h 96% 0.0 mm 68 W/m2
19:21 12.7 °C 12.1 °C 1010.4 hPa WNW 1.1 km/h 8.7 km/h 96% 0.0 mm 70 W/m2
19:26 12.8 °C 12.3 °C 1010.4 hPa NW 5.0 km/h 7.2 km/h 97% 0.0 mm 100 W/m2
19:31 13.0 °C 12.4 °C 1010.4 hPa NW 2.6 km/h 7.2 km/h 96% 0.0 mm 110 W/m2
19:36 13.2 °C 12.6 °C 1010.4 hPa NW 1.1 km/h 7.2 km/h 96% 0.0 mm 76 W/m2
19:41 13.2 °C 12.6 °C 1009.7 hPa ENE 6.1 km/h 7.2 km/h 96% 0.0 mm 96 W/m2
19:46 13.2 °C 12.4 °C 1009.7 hPa East 3.5 km/h 8.7 km/h 95% 0.0 mm 58 W/m2
19:51 13.2 °C 12.4 °C 1010.0 hPa East 5.0 km/h 9.7 km/h 95% 0.0 mm 53 W/m2
19:56 13.5 °C 12.6 °C 1009.7 hPa NE 6.1 km/h 31.7 km/h 94% 0.0 mm 66 W/m2
20:01 13.6 °C 12.0 °C 1009.4 hPa NNE 8.7 km/h 31.7 km/h 90% 0.0 mm 58 W/m2
20:06 13.9 °C 11.9 °C 1009.4 hPa NE 2.6 km/h 20.9 km/h 88% 0.0 mm 39 W/m2
20:11 13.9 °C 11.8 °C 1009.0 hPa NE 3.5 km/h 19.5 km/h 87% 0.0 mm 32 W/m2
20:16 13.9 °C 11.8 °C 1008.7 hPa NNE 3.5 km/h 19.5 km/h 87% 0.0 mm 33 W/m2
20:21 13.9 °C 11.8 °C 1009.0 hPa NNW 8.7 km/h 11.1 km/h 87% 0.0 mm 28 W/m2
20:26 13.9 °C 11.6 °C 1009.0 hPa NNW 8.7 km/h 15.8 km/h 86% 0.0 mm 30 W/m2
20:31 13.9 °C 11.6 °C 1009.0 hPa NW 6.1 km/h 15.8 km/h 86% 0.0 mm 32 W/m2
20:36 13.7 °C 11.6 °C 1009.0 hPa NW 12.2 km/h 14.8 km/h 87% 0.0 mm 33 W/m2
20:41 13.6 °C 11.7 °C 1008.4 hPa NNW 12.2 km/h 17.2 km/h 88% 0.0 mm 34 W/m2
20:46 13.6 °C 11.7 °C 1008.0 hPa NNW 6.1 km/h 17.2 km/h 88% 0.0 mm 37 W/m2
20:51 13.6 °C 11.7 °C 1008.7 hPa NNW 9.7 km/h 17.2 km/h 88% 0.0 mm 35 W/m2
20:56 13.6 °C 11.7 °C 1008.7 hPa NNW 12.2 km/h 24.5 km/h 88% 0.0 mm 29 W/m2
21:01 13.6 °C 11.7 °C 1008.4 hPa NNW 5.0 km/h 24.5 km/h 88% 0.0 mm 27 W/m2
21:06 13.6 °C 11.7 °C 1008.4 hPa NNW 14.8 km/h 24.5 km/h 88% 0.0 mm 21 W/m2
21:11 13.7 °C 11.6 °C 1008.4 hPa NNW 15.8 km/h 24.5 km/h 87% 0.0 mm 24 W/m2
21:16 13.9 °C 11.6 °C 1008.4 hPa NNW 13.4 km/h 21.9 km/h 86% 0.0 mm 31 W/m2
21:21 13.9 °C 11.6 °C 1008.4 hPa NNW 11.1 km/h 21.9 km/h 86% 0.0 mm 36 W/m2
21:26 14.1 °C 11.4 °C 1008.4 hPa North 5.0 km/h 18.3 km/h 84% 0.0 mm 42 W/m2
21:31 14.0 °C 11.3 °C 1008.0 hPa NNW 1.1 km/h 15.8 km/h 84% 0.0 mm 42 W/m2
21:36 13.9 °C 11.4 °C 1008.0 hPa North 2.6 km/h 7.2 km/h 85% 0.0 mm 42 W/m2
21:41 13.9 °C 11.6 °C 1008.4 hPa NNE 9.7 km/h 15.8 km/h 86% 0.0 mm 33 W/m2
21:46 13.9 °C 11.6 °C 1008.4 hPa North 6.1 km/h 15.8 km/h 86% 0.0 mm 40 W/m2
21:51 13.9 °C 11.4 °C 1008.4 hPa North 7.2 km/h 17.2 km/h 85% 0.0 mm 58 W/m2
21:56 14.1 °C 11.3 °C 1008.0 hPa NNE 13.4 km/h 21.9 km/h 83% 0.0 mm 60 W/m2
22:01 14.2 °C 11.2 °C 1008.0 hPa North 12.2 km/h 21.9 km/h 82% 0.0 mm 62 W/m2
22:06 14.3 °C 11.1 °C 1008.0 hPa North 6.1 km/h 19.5 km/h 81% 0.0 mm 65 W/m2
22:11 14.3 °C 11.1 °C 1008.0 hPa North 7.2 km/h 18.3 km/h 81% 0.0 mm 66 W/m2
22:16 14.3 °C 11.1 °C 1008.0 hPa NNE 3.5 km/h 18.3 km/h 81% 0.0 mm 59 W/m2
22:21 14.3 °C 10.9 °C 1008.0 hPa NNE 11.1 km/h 17.2 km/h 80% 0.0 mm 52 W/m2
22:26 14.3 °C 10.9 °C 1007.7 hPa NNE 11.1 km/h 19.5 km/h 80% 0.0 mm 56 W/m2
22:31 14.3 °C 10.9 °C 1008.0 hPa NNE 6.1 km/h 19.5 km/h 80% 0.0 mm 56 W/m2
22:36 14.2 °C 10.6 °C 1007.7 hPa NNE 6.1 km/h 14.8 km/h 79% 0.0 mm 50 W/m2
22:41 14.2 °C 10.6 °C 1008.0 hPa NNE 11.1 km/h 17.2 km/h 79% 0.0 mm 45 W/m2
22:46 14.2 °C 10.4 °C 1007.7 hPa North 7.2 km/h 23.3 km/h 78% 0.0 mm 43 W/m2
22:51 14.2 °C 10.2 °C 1007.7 hPa NNE 3.5 km/h 23.3 km/h 77% 0.0 mm 38 W/m2
22:56 14.1 °C 10.1 °C 1008.0 hPa North 9.7 km/h 15.8 km/h 77% 0.0 mm 36 W/m2
23:01 14.1 °C 10.1 °C 1008.0 hPa North 6.1 km/h 13.4 km/h 77% 0.0 mm 36 W/m2
23:06 14.1 °C 10.1 °C 1008.0 hPa NNE 5.0 km/h 13.4 km/h 77% 0.0 mm 35 W/m2
23:11 14.1 °C 10.1 °C 1007.7 hPa NE 8.7 km/h 12.2 km/h 77% 0.0 mm 34 W/m2
23:16 14.0 °C 10.1 °C 1007.7 hPa NNE 6.1 km/h 13.4 km/h 77% 0.0 mm 31 W/m2
23:21 14.0 °C 9.8 °C 1007.3 hPa NNE 6.1 km/h 18.3 km/h 76% 0.0 mm 30 W/m2
23:26 14.0 °C 9.8 °C 1007.3 hPa NE 7.2 km/h 18.3 km/h 76% 0.0 mm 33 W/m2
23:42 13.9 °C 10.1 °C 1007.3 hPa NNE 3.5 km/h 18.3 km/h 78% 0.0 mm 26 W/m2
23:47 13.9 °C 10.1 °C 1007.7 hPa NNE 5.0 km/h 18.3 km/h 78% 0.0 mm 24 W/m2
23:52 13.7 °C 9.9 °C 1007.7 hPa NNE 5.0 km/h 17.2 km/h 78% 0.0 mm 21 W/m2
23:58 13.7 °C 9.9 °C 1007.7 hPa NNE 6.1 km/h 17.2 km/h 78% 0.0 mm 18 W/m2
Northern Hawkes Bay. New Zealand Historic Data
Compliments of Weather Underground - 2 mb